Fort Polk, LA

6:49 AM CDT on October 18, 2019 (GMT -0500)
Fort Polk

Weather History for KAQV - September, 2019

Change the Weather History Date:

Sunday, September 22, 2019

  Actual Average (KPOE) Record (KPOE)
Temperature  
Mean Temperature 81 °F -  
Max Temperature 93 °F 83 °F 98 °F (2005)
Min Temperature 71 °F 63 °F 53 °F (1999)
Cooling Degree Days 16    
Growing Degree Days 31 (Base 50)    
Moisture  
Dew Point 69 °F    
Average Humidity 73    
Maximum Humidity 93    
Minimum Humidity 41    
Precipitation  
Precipitation 0.00 in - - ()
Sea Level Pressure  
Sea Level Pressure 30.04 in    
Wind  
Wind Speed 3 mph (South)    
Max Wind Speed 8 mph    
Max Gust Speed -    
Visibility 10 miles    
Events      
Averages and records for this station are not official NWS values.
T = Trace of Precipitation, MM = Missing Value Source: NWS Daily Summary

Daily Weather History Graph

Daily Weather History Graph

Search for Another Location

Airport or City:

Astronomy

Sep. 22, 2019 Rise Set
Actual Time 7:01 AM CDT 7:10 PM CDT
Civil Twilight 6:37 AM CDT 7:34 PM CDT
Nautical Twilight 6:08 AM CDT 8:02 PM CDT
Astronomical Twilight 5:40 AM CDT 8:31 PM CDT
Moon 12:13 AM CDT (9/22) 2:42 PM CDT (9/22)
Length of Visible Light 12h 57m
Length of Day
12h 08m
Last Quarter, 44% of the Moon is Illuminated
Sep 22
Last Quarter
Sep 28
New
Oct 5
First Quarter
Oct 13
Full
Oct 21
Last Quarter

Hourly Weather History & Observations

Time (CDT) Temp. Heat Index Dew Point Humidity Pressure Visibility Wind Dir Wind Speed Gust Speed Precip Events Conditions
12:56 AM 75.0 °F - 71.1 °F 87% 30.06 in 10.0 mi Variable 3.5 mph - N/A   Mostly Cloudy
1:56 AM 73.9 °F - 71.1 °F 91% 30.07 in 10.0 mi Variable 3.5 mph - N/A   Clear
2:56 AM 73.0 °F - 71.1 °F 93% 30.06 in 10.0 mi Calm Calm - N/A   Clear
3:56 AM 72.0 °F - 70.0 °F 93% 30.06 in 10.0 mi Calm Calm - N/A   Clear
4:56 AM 72.0 °F - 70.0 °F 93% 30.05 in 9.0 mi Calm Calm - N/A   Clear
5:56 AM 72.0 °F - 70.0 °F 93% 30.06 in 10.0 mi Calm Calm - N/A   Clear
6:56 AM 71.1 °F - 69.1 °F 93% 30.06 in 10.0 mi SSE 4.6 mph - N/A   Clear
7:56 AM 72.0 °F - 70.0 °F 93% 30.07 in 10.0 mi SE 3.5 mph - N/A   Clear
8:56 AM 77.0 °F - 70.0 °F 79% 30.09 in 10.0 mi Variable 4.6 mph - N/A   Clear
9:56 AM 82.0 °F 85.9 °F 70.0 °F 67% 30.08 in 10.0 mi Variable 6.9 mph - N/A   Clear
10:56 AM 87.1 °F 91.3 °F 69.1 °F 55% 30.08 in 10.0 mi Variable 6.9 mph - N/A   Mostly Cloudy
11:56 AM 88.0 °F 91.4 °F 68.0 °F 51% 30.06 in 10.0 mi Variable 3.5 mph - N/A   Overcast
12:56 PM 89.1 °F 91.0 °F 64.9 °F 45% 30.04 in 10.0 mi Variable 4.6 mph - N/A   Partly Cloudy
1:56 PM 91.9 °F 94.1 °F 64.9 °F 41% 30.02 in 10.0 mi SW 8.1 mph - N/A   Clear
2:56 PM 91.9 °F 94.5 °F 66.0 °F 42% 30.00 in 10.0 mi Variable 4.6 mph - N/A   Mostly Cloudy
3:56 PM 91.9 °F 95.4 °F 66.9 °F 44% 29.99 in 10.0 mi Variable 3.5 mph - N/A   Mostly Cloudy
5:56 PM 87.1 °F 90.6 °F 68.0 °F 53% 29.99 in 10.0 mi Calm Calm - N/A   Partly Cloudy
6:56 PM 84.0 °F 87.8 °F 69.1 °F 61% 29.99 in 10.0 mi Calm Calm - N/A   Scattered Clouds
7:56 PM 79.0 °F - 71.1 °F 77% 30.01 in 10.0 mi Calm Calm - N/A   Mostly Cloudy
8:56 PM 77.0 °F - 71.1 °F 82% 30.03 in 10.0 mi Calm Calm - N/A   Clear
9:56 PM 77.0 °F - 71.1 °F 82% 30.04 in 10.0 mi Calm Calm - N/A   Clear
10:56 PM 75.9 °F - 70.0 °F 82% 30.05 in 10.0 mi South 4.6 mph - N/A   Clear
11:56 PM 75.9 °F - 70.0 °F 82% 30.04 in 10.0 mi Calm Calm - N/A   Clear